STARLINK-33739

Satellite information

Favourite Embed

Satellite Type and Status

PAYLOADIN ORBIT

Key statistics

Satellite STARLINK-33739 at a glance.

Uptime

243

Days in orbit

Revolutions

≈ 15.3

Per day

Orbit

LEO

Low Earth Orbit

Inclination

43.0

Latest

Satellite identification and parameters

Extended collection of information and parameters for STARLINK-33739.

Object identification

Identified? True

Debris? False

Object name: STARLINK-33739

International designator: 2025-076D

Object number (NORAD): 63572

Object ID (CCSDS): 63572

Country: UNITED STATES OF AMERICA (US)

Current information (Y/N): Y

RCS size: LARGE

Orbital parameters

Period: 94.266 minutes

Inclination: 43.0068 deg

SMA: 6861.159 km

Apoapsis: 483.785 km

Periapsis: 482.264 km

RAAN: 95.489 deg

Eccentricy: 0.00011084

Argument of periapsis: 257.3144 deg

Mean anomaly: 102.7584 deg

Mean motion: 15.27588913 rev/day

Mean motion (dot): 0.00050295 rev/day2

B* drag term: 0.0018243087 1/REarth

Two-line elements (TLE)

Creation date: Dec. 12, 2025, 10:14 a.m.

Reference frame: TEME

Reference center: EARTH

Epoch: Dec. 12, 2025, 7:32 a.m. UTC

TLE line 0: 0 STARLINK-33739

TLE line 1: 1 63572U 25076D 25346.31457531 .00050295 00000-0 18243-2 0 9993

TLE line 2: 2 63572 43.0068 95.4890 0001108 257.3144 102.7584 15.27588913 38464

Live tracking on map

Real-time ground track for satellite STARLINK-33739.

In-orbit conjunctions

There are no conjunctions computed for STARLINK-33739, at the moment. Check back to stay up to date, as we update our databases every day.

Go to all conjunctions

Associated space launch

A batch of 27 satellites for the Starlink mega-constellation - SpaceX's project for space-based Internet communication system.

STARLINK-33739 was lifted into orbit during the mission ‘Falcon 9 Block 5 | Starlink Group 6-73’, on board a Falcon 9 space rocket.

The launch took place on April 14, 2025, 4 a.m. from Space Launch Complex 40.

For more information about the launch, click the button.

Launch to space Falcon 9 Block 5 | Starlink Group 6-73
Falcon 9 Block 5 | Starlink Group 6-73

Agency: SpaceX

Status: Launch Successful

Launch date: April 14, 2025, 4 a.m. UTC

Rocket: Falcon 9

Launch pad: Space Launch Complex 40

Location: Cape Canaveral SFS, FL, USA

...

Latest news about this satellite

News about space launch
Live coverage: SpaceX to launch 27 Starlink satellites on Falcon 9 rocket from Cape Canaveral

The Starlink 6-73 mission features a Falcon booster, tail number 1067, which will launch for a record-setting 27th time. Liftoff from pad 40 at Cape Canaveral Space Force Station is targeting 10:34 p.m. EDT (0234 UTC).


Newsletter sign-up

Weekly statistics, charts and insights to help you stay on top of the space industry.